Hourly Weather Rechytsa

Today, 11 August, Tuesday

Time Temperature Precipitation Wind Pressure Humidity
00:00 +19°C° 0 mm 1 mps 750 mmHg 88%
01:00 +19°C° 0 mm 1 mps 750 mmHg 89%
02:00 +18°C° 0 mm 1 mps 751 mmHg 91%
03:00 +18°C° 0 mm 1 mps 750 mmHg 92%
04:00 +18°C° 0 mm 1 mps 750 mmHg 92%
05:00 +18°C° 0 mm 1 mps 750 mmHg 93%
06:00 +19°C° 0 mm 1 mps 750 mmHg 87%
07:00 +21°C° 0 mm 1 mps 750 mmHg 82%
08:00 +23°C° 0 mm 2 mps 751 mmHg 75%
09:00 +24°C° 0.3 mm 2 mps 750 mmHg 70%
10:00 +25°C° 0.3 mm 2 mps 750 mmHg 66%
11:00 +26°C° 0.3 mm 2 mps 750 mmHg 62%
12:00 +26°C° 0.4 mm 3 mps 750 mmHg 61%
13:00 +26°C° 0.4 mm 3 mps 750 mmHg 59%
14:00 +27°C° 0.4 mm 3 mps 750 mmHg 58%
15:00 +26°C° 0.1 mm 4 mps 750 mmHg 62%
16:00 +25°C° 0.1 mm 4 mps 750 mmHg 65%
17:00 +23°C° 0.1 mm 4 mps 750 mmHg 68%
18:00 +22°C° 0 mm 4 mps 750 mmHg 74%
19:00 +20°C° 0 mm 4 mps 750 mmHg 79%
20:00 +18°C° 0 mm 3 mps 750 mmHg 85%
21:00 +17°C° 0 mm 3 mps 751 mmHg 85%
22:00 +16°C° 0 mm 3 mps 751 mmHg 84%
23:00 +14°C° 0 mm 3 mps 751 mmHg 84%

Tomorrow, 12 August, Wednesday

Time Temperature Precipitation Wind Pressure Humidity
00:00 +13°C° 0 mm 3 mps 751 mmHg 86%
01:00 +13°C° 0 mm 3 mps 751 mmHg 88%
02:00 +12°C° 0 mm 3 mps 751 mmHg 90%
03:00 +11°C° 0 mm 3 mps 751 mmHg 91%
04:00 +11°C° 0 mm 3 mps 752 mmHg 92%
05:00 +11°C° 0 mm 3 mps 752 mmHg 93%
06:00 +12°C° 0 mm 3 mps 752 mmHg 86%
07:00 +14°C° 0 mm 4 mps 752 mmHg 78%
08:00 +15°C° 0 mm 4 mps 752 mmHg 70%
09:00 +17°C° 0 mm 4 mps 752 mmHg 66%
10:00 +18°C° 0 mm 4 mps 752 mmHg 62%
11:00 +19°C° 0 mm 5 mps 752 mmHg 59%
12:00 +19°C° 0.1 mm 5 mps 752 mmHg 59%
13:00 +20°C° 0.1 mm 5 mps 752 mmHg 59%
14:00 +20°C° 0.1 mm 5 mps 752 mmHg 59%
15:00 +19°C° 0 mm 5 mps 752 mmHg 61%
16:00 +19°C° 0 mm 4 mps 752 mmHg 62%
17:00 +19°C° 0 mm 4 mps 752 mmHg 63%
18:00 +17°C° 0 mm 4 mps 752 mmHg 70%
19:00 +16°C° 0 mm 3 mps 752 mmHg 77%
20:00 +14°C° 0 mm 2 mps 752 mmHg 83%
21:00 +14°C° 0 mm 2 mps 752 mmHg 86%
22:00 +13°C° 0 mm 2 mps 753 mmHg 88%
23:00 +12°C° 0 mm 2 mps 753 mmHg 91%

Day after tomorrow, 13 August, Thursday

Time Temperature Precipitation Wind Pressure Humidity
00:00 +12°C° 0 mm 2 mps 753 mmHg 92%
01:00 +12°C° 0 mm 2 mps 753 mmHg 92%
02:00 +10°C° 0 mm 2 mps 753 mmHg 93%
03:00 +10°C° 0 mm 2 mps 753 mmHg 94%
04:00 +10°C° 0 mm 2 mps 753 mmHg 94%
05:00 +10°C° 0 mm 2 mps 753 mmHg 95%
06:00 +13°C° 0 mm 2 mps 753 mmHg 88%
07:00 +14°C° 0 mm 2 mps 752 mmHg 82%
08:00 +16°C° 0 mm 3 mps 752 mmHg 75%
09:00 +17°C° 0.1 mm 3 mps 752 mmHg 70%
10:00 +18°C° 0.1 mm 4 mps 752 mmHg 66%
11:00 +19°C° 0.1 mm 4 mps 752 mmHg 61%
12:00 +19°C° 0 mm 4 mps 752 mmHg 58%
13:00 +20°C° 0 mm 4 mps 752 mmHg 55%
14:00 +20°C° 0 mm 4 mps 752 mmHg 52%
15:00 +20°C° 0 mm 4 mps 752 mmHg 53%
16:00 +20°C° 0 mm 4 mps 752 mmHg 55%
17:00 +19°C° 0 mm 4 mps 752 mmHg 56%
18:00 +18°C° 0 mm 3 mps 752 mmHg 63%
19:00 +16°C° 0 mm 2 mps 752 mmHg 70%
20:00 +14°C° 0 mm 2 mps 752 mmHg 77%
21:00 +14°C° 0 mm 1 mps 752 mmHg 79%
22:00 +13°C° 0 mm 1 mps 752 mmHg 81%
23:00 +12°C° 0 mm 1 mps 752 mmHg 84%

14 August, Friday

Time Temperature Precipitation Wind Pressure Humidity
00:00 +12°C° 0 mm 1 mps 752 mmHg 85%
01:00 +12°C° 0 mm 1 mps 752 mmHg 87%
02:00 +11°C° 0 mm 1 mps 752 mmHg 88%
03:00 +11°C° 0 mm 1 mps 752 mmHg 90%
04:00 +11°C° 0 mm 1 mps 752 mmHg 91%
05:00 +11°C° 0 mm 1 mps 752 mmHg 92%
06:00 +13°C° 0 mm 1 mps 752 mmHg 85%
07:00 +14°C° 0 mm 1 mps 752 mmHg 79%
08:00 +16°C° 0 mm 1 mps 752 mmHg 73%
09:00 +18°C° 0 mm 2 mps 752 mmHg 66%
10:00 +19°C° 0 mm 2 mps 752 mmHg 60%
11:00 +20°C° 0 mm 2 mps 752 mmHg 54%
12:00 +21°C° 0 mm 2 mps 752 mmHg 53%
13:00 +21°C° 0 mm 2 mps 752 mmHg 51%
14:00 +23°C° 0 mm 2 mps 752 mmHg 50%
15:00 +23°C° 0 mm 2 mps 751 mmHg 51%
16:00 +21°C° 0 mm 2 mps 751 mmHg 53%
17:00 +21°C° 0 mm 2 mps 751 mmHg 54%
18:00 +19°C° 0 mm 2 mps 751 mmHg 61%
19:00 +18°C° 0 mm 1 mps 752 mmHg 68%
20:00 +15°C° 0 mm 1 mps 752 mmHg 75%
21:00 +15°C° 0 mm 1 mps 752 mmHg 77%
22:00 +14°C° 0 mm 1 mps 752 mmHg 80%
23:00 +13°C° 0 mm 1 mps 752 mmHg 82%

15 August, Saturday

Time Temperature Precipitation Wind Pressure Humidity
00:00 +13°C° 0 mm 1 mps 753 mmHg 84%
01:00 +13°C° 0 mm 1 mps 753 mmHg 85%
02:00 +12°C° 0 mm 1 mps 753 mmHg 87%
03:00 +12°C° 0 mm 1 mps 753 mmHg 87%
04:00 +12°C° 0 mm 1 mps 753 mmHg 86%
05:00 +11°C° 0 mm 0 mps 753 mmHg 86%
06:00 +14°C° 0 mm 1 mps 753 mmHg 80%
07:00 +16°C° 0 mm 1 mps 753 mmHg 73%
08:00 +18°C° 0 mm 1 mps 753 mmHg 67%
09:00 +20°C° 0 mm 1 mps 753 mmHg 63%
10:00 +21°C° 0 mm 1 mps 754 mmHg 59%
11:00 +22°C° 0 mm 1 mps 754 mmHg 55%
12:00 +23°C° 0 mm 1 mps 753 mmHg 53%
13:00 +23°C° 0 mm 1 mps 753 mmHg 50%
14:00 +24°C° 0 mm 2 mps 753 mmHg 47%
15:00 +23°C° 0 mm 2 mps 753 mmHg 48%
16:00 +23°C° 0 mm 2 mps 753 mmHg 49%
17:00 +23°C° 0 mm 2 mps 753 mmHg 50%
18:00 +20°C° 0 mm 2 mps 753 mmHg 55%
19:00 +18°C° 0 mm 2 mps 753 mmHg 60%
20:00 +16°C° 0 mm 2 mps 753 mmHg 64%
21:00 +15°C° 0 mm 2 mps 753 mmHg 65%
22:00 +15°C° 0 mm 1 mps 753 mmHg 66%
23:00 +14°C° 0 mm 1 mps 753 mmHg 67%

16 August, Sunday

Time Temperature Precipitation Wind Pressure Humidity
00:00 +14°C° 0 mm 1 mps 753 mmHg 71%
01:00 +13°C° 0 mm 1 mps 753 mmHg 74%
02:00 +13°C° 0 mm 1 mps 753 mmHg 78%
03:00 +12°C° 0 mm 1 mps 754 mmHg 80%
04:00 +12°C° 0 mm 1 mps 754 mmHg 83%
05:00 +12°C° 0 mm 1 mps 754 mmHg 86%
06:00 +14°C° 0 mm 1 mps 754 mmHg 79%
07:00 +16°C° 0 mm 1 mps 754 mmHg 72%
08:00 +19°C° 0 mm 1 mps 754 mmHg 66%
09:00 +20°C° 0 mm 1 mps 754 mmHg 60%
10:00 +21°C° 0 mm 2 mps 754 mmHg 54%
11:00 +23°C° 0 mm 2 mps 754 mmHg 48%
12:00 +24°C° 0 mm 2 mps 754 mmHg 46%
13:00 +24°C° 0 mm 2 mps 754 mmHg 44%
14:00 +25°C° 0 mm 2 mps 754 mmHg 42%
15:00 +24°C° 0 mm 2 mps 754 mmHg 44%
16:00 +24°C° 0 mm 2 mps 754 mmHg 45%
17:00 +24°C° 0 mm 2 mps 753 mmHg 47%
18:00 +22°C° 0 mm 1 mps 753 mmHg 54%
19:00 +19°C° 0 mm 1 mps 753 mmHg 61%
20:00 +16°C° 0 mm 1 mps 754 mmHg 68%
21:00 +16°C° 0 mm 1 mps 754 mmHg 69%
22:00 +15°C° 0 mm 1 mps 754 mmHg 71%
23:00 +14°C° 0 mm 1 mps 754 mmHg 73%
Show more